MSX

Satellite information

Favourite Embed

Satellite Type and Status

PAYLOADIN ORBIT

Key statistics

Satellite MSX at a glance.

Uptime

10606

Days in orbit

Revolutions

≈ 14.0

Per day

Orbit

SSO

Sun Synchronous Orbit

Inclination

99.0

Latest

Satellite identification and parameters

Extended collection of information and parameters for MSX.

Object identification

Identified? True

Debris? False

Object name: MSX

International designator: 1996-024A

Object number (NORAD): 23851

Object ID (CCSDS): 23851

Country: UNITED STATES OF AMERICA (US)

Current information (Y/N): Y

RCS size: LARGE

Orbital parameters

Period: 102.979 minutes

Inclination: 99.0059 deg

SMA: 7277.694 km

Apoapsis: 904.143 km

Periapsis: 894.975 km

RAAN: 66.5684 deg

Eccentricy: 0.0006299

Argument of periapsis: 276.4541 deg

Mean anomaly: 83.5906 deg

Mean motion: 13.98337797 rev/day

Mean motion (dot): 0.00000346 rev/day2

B* drag term: 0.00027317 1/REarth

Two-line elements (TLE)

Creation date: May 8, 2025, 3:01 a.m.

Reference frame: TEME

Reference center: EARTH

Epoch: May 7, 2025, 7:51 p.m. UTC

TLE line 0: 0 MSX

TLE line 1: 1 23851U 96024A 25127.82736332 .00000346 00000-0 27317-3 0 9997

TLE line 2: 2 23851 99.0059 66.5684 0006299 276.4541 83.5906 13.98337797481699

Live tracking on map

Real-time ground track for satellite MSX.

In-orbit conjunctions

A list of the most updated potential collisions computed for object MSX.

Target Orbit TCA Probability of collision Miss distance Type
FENGYUN 1C DEB SSO 2025-04-17 05:20:53 0.0003731064 368.0 (m) DEBRIS
METEOR 2-17 DEB LEO 2024-12-27 22:35:46 0.0002943857 145.0 (m) DEBRIS
DELTA 1 DEB SSO 2024-09-25 12:38:09 0.0001034051 525.0 (m) DEBRIS

Associated space launch

MSX (Midcourse Space Experiment) demonstrated different multispectral imaging technologies to identify and track ballistic missiles during flight by observing rocket launches and orbital debris. Additionally it measured the composition and dynamics of the Earth's atmosphere by observing ozone, chloroflourocarbons, carbon dioxide and methane.

MSX was lifted into orbit during the mission ‘Delta II | MSX’, on board a Delta II space rocket.

The launch took place on April 24, 1996, 12:27 p.m. from Space Launch Complex 2W.

For more information about the launch, click the button.

Launch to space Delta II | MSX
Delta II | MSX

Agency: N/A

Status: Launch Successful

Launch date: April 24, 1996, 12:27 p.m. UTC

Rocket: Delta II

Launch pad: Space Launch Complex 2W

Location: Vandenberg SFB, CA, USA

...

Latest news about this satellite

There are no fresh news available about this satellite. Check back as we update our databases every day.


Newsletter sign-up

Weekly statistics, charts and insights to help you stay on top of the space industry.